Location: Regona
(45.2000°N, 9.8167°E)
Time: 13:32:28
(UTC+00:00)

Cosmos 2263 Rocket - Pass Details

Date: 07 June 2020
Orbit: 825 x 847 km, 71.0° (Epoch: 15 July)

Event Time Altitude Azimuth Distance (km) Brightness Sun altitude
Rises 02:48:59 0° 313° (NW) 3,381 5.3 -7.0°
Reaches altitude 10° 02:54:04 10° 273° (W) 2,433 4.2 -6.4°
Maximum altitude 02:54:48 10° 265° (W) 2,413 4.1 -6.3°
Drops below altitude 10° 02:55:32 10° 258° (WSW) 2,430 4.1 -6.2°
Enters shadow 02:57:51 - 236° (SW) 2,702 4.1 -5.9°
